890  
ASUS43 KDMX 050301  
RWRIA  
 
WEATHER ROUNDUP FOR IOWA  
NATIONAL WEATHER SERVICE DES MOINES IA  
900 PM CST MON MAR 04 2024  
 
NOTE: "FAIR" INDICATES FEW OR NO CLOUDS BELOW 12,000 FEET WITH NO  
SIGNIFICANT WEATHER AND/OR S TO VISIBILITY
.  
 
* - THESE STATIONS ARE NOT NWS STATIONS...THUS NOT UNDER NWS  
QUALITY CONTROL. THEY ALSO DO NOT REPORT WEATHER SUCH  
AS PRECIPITATION OR FOG.
 
 
IAZ001>003-012>014-020>022-031>034-043>046-050400-  
NORTHWEST IOWA  
 
CITY SKY/WX TMP DP RH WIND PRES REMARKS
 
LE MARS * PTCLDY 32 19 59 N10 30.01S WCI 24 TC 0  
SIOUX CITY PTCLDY 39 22 50 NE10 30.02R WCI 32 TC 4  
SPENCER CLEAR 24 14 65 N9 30.04R WCI 14 TC -4  

 
 
IAZ055>058-069>071-079>083-090>094-050400-  
SOUTHWEST IOWA  
 
CITY SKY/WX TMP DP RH WIND PRES REMARKS
 
CLARINDA * MOCLDY 45 27 49 NE12 29.93R TC 7  
LAMONI CLOUDY 43 35 73 NE17G33 29.87S TC 6  

 
 
IAZ047>049-059>061-072>074-084-050400-  
CENTRAL IOWA  
 
CITY SKY/WX TMP DP RH WIND PRES REMARKS
 
AMES MOCLDY 41 33 73 N14 29.95R TC 5  
CHARITON * N/A 41 37 87 N16G23 29.89R TC 5  
DES MOINES MOCLDY 43 33 68 N12G18 29.95R TC 6  
GRINNELL* LGT RAIN 43 40 86 NE14 29.91S TC 6  
KNOXVILLE * CLOUDY 43 37 81 N14 29.89F TC 6  
MARSHALLTOWN CLOUDY 40 35 83 N15 29.93R WCI 32 TC 4  
PERRY * PTCLDY 39 32 75 N15 29.96S WCI 31 TC 4  

 
 
IAZ004>006-015-016-023>025-035-036-050400-  
NORTH CENTRAL IOWA  
 
CITY SKY/WX TMP DP RH WIND PRES REMARKS
 
ESTHERVILLE CLEAR 25 13 60 N8 30.03R WCI 16 TC -4  
FORT DODGE * PTCLDY 35 18 49 N9G18 29.99S WCI 28 TC 2  
MASON CITY PTCLDY 27 22 81 N9 30.00S WCI 18 TC -3  
IOWA FALLS * PTCLDY 38 32 81 N10 29.96F WCI 30 TC 3  

 
 
IAZ007>011-017>019-026>030-037>042-050>054-066-050400-  
NORTHEAST IOWA  
 
CITY SKY/WX TMP DP RH WIND PRES REMARKS
 
CEDAR RAPIDS CLOUDY 42 35 76 N16G26 29.88R TC 6  
CLINTON * CLOUDY 43 41 93 NE22 29.84F TC 6  
DUBUQUE LGT RAIN 41 36 82 N23 29.87S TC 5  
WATERLOO CLOUDY 40 35 83 N13 29.95R WCI 32 TC 4  

 
 
IAZ064-065-067-068-078-050400-  
EAST CENTRAL IOWA  
 
CITY SKY/WX TMP DP RH WIND PRES REMARKS
 
DAVENPORT CLOUDY 43 38 82 N16G28 29.86R TC 6  
IOWA CITY CLOUDY 44 37 76 N16G23 29.89R TC 7  
QUAD CITIES CLOUDY 45 40 82 N7G20 29.84R TC 7  

 
 
IAZ062-063-075>077-085>089-095>099-050400-  
SOUTHEAST IOWA  
 
CITY SKY/WX TMP DP RH WIND PRES REMARKS
 
BURLINGTON CLOUDY 45 42 89 N15G22 29.83R TC 7  
OTTUMWA LGT RAIN 42 35 76 N17G24 29.88R TC 6  
WASHINGTON * CLOUDY 41 41 100 N15G21 29.86R TC 5  

 
 
ABBREVIATIONS USED IN REMARKS  
TC - TEMPERATURES IN CELSIUS  
WCI - WIND CHILL INDEX  
HX - HEAT INDEX  
VSB - VISIBILITY  

 
 
 
 
CLICK HERE TO GO TO PREVIOUS BULLETINS.

The Nexlab IA Page Main Text Page